Overview Statistics Trail Chart Weather Telemetry Raw packets
 

This is the latest recevied weather packets stored in our database for station/object W4MLN-3. If no packets are shown the sender has not sent any weather packets the latest 10 day(s).

<< 1 2 3 4 5 6 7 >>
Time Temp. Humidity Pressure Rain* Wind** Luminosity Snow
1788626403 25.56° C 63% 1019.1 hPa 0 mm - - -
1788626103 26.11° C 63% 1019.2 hPa 0 mm - - -
1788625803 26.67° C 67% 1019 hPa 0 mm - - -
1788625504 27.22° C 67% 1018.7 hPa 0 mm - - -
1788625224 27.22° C 65% 1018.8 hPa 0 mm - - -
1788624903 27.78° C 65% 1018.5 hPa 0 mm - - -
1788624603 27.78° C 63% 1018.4 hPa 0 mm - - -
1788624303 28.33° C 62% 1018.2 hPa 0 mm - - -
1788624003 28.33° C 63% 1018.4 hPa 0 mm - - -
1788623725 28.89° C 63% 1018.4 hPa 0 mm - - -
1788623404 28.33° C 63% 1018.4 hPa 0 mm - - -
1788623103 27.78° C 67% 1018.7 hPa 0 mm - - -
1788622824 27.78° C 66% 1018.7 hPa 0 mm - - -
1788622503 27.78° C 65% 1018.4 hPa 0 mm - - -
1788622204 28.33° C 64% 1018.6 hPa 0 mm - - -
1788621903 28.89° C 62% 1018.6 hPa 0 mm - - -
1788621603 28.89° C 63% 1018.5 hPa 0 mm - - -
1788621304 28.89° C 63% 1018.4 hPa 0 mm - - -
1788621003 28.33° C 65% 1018.2 hPa 0 mm - - -
1788620711 28.33° C 67% 1018.2 hPa 0 mm - - -
1788620403 28.33° C 64% 1018.2 hPa 0 mm - - -
1788620103 28.33° C 66% 1018.1 hPa 0 mm - - -
1788619824 27.78° C 67% 1018 hPa 0 mm - - -
1788619503 27.78° C 65% 1018.2 hPa 0 mm - - -
1788619225 27.78° C 65% 1018.2 hPa 0 mm - - -

* Rain latest hour (hover to see other rain measurements)
** Current wind speed in m/s (hover to see current wind gust speed)